BHS325 MYNN-MYGF

Flight info

Callsign BHS325
Flight time 0h 29m
Altitude 14000
Route PEACH BR65V ZFP
Aircraft DH8D/M-SDE2E3FGRY/H

Departure

Time 2026-04-30 22:29
Airport Lynden Pindling International Airport (MYNN)

Arrival

Time 2026-04-30 22:59
Airport Grand Bahama International Airport (MYGF)
Time Latitude Longitude Altitude Speed Heading
2026-04-30 22:03 25.04776 -77.46565 26 ft 0 kts 182°
2026-04-30 22:26 25.04771 -77.46571 26 ft 3 kts 264°
2026-04-30 22:26 25.04786 -77.46648 26 ft 14 kts 253°
2026-04-30 22:26 25.04723 -77.46726 26 ft 12 kts 227°
2026-04-30 22:27 25.04738 -77.46814 26 ft 14 kts 316°
2026-04-30 22:27 25.04819 -77.46903 26 ft 19 kts 314°
2026-04-30 22:27 25.05071 -77.47184 26 ft 23 kts 313°
2026-04-30 22:28 25.05211 -77.47453 26 ft 18 kts 251°
2026-04-30 22:28 25.05151 -77.47524 26 ft 9 kts 152°
2026-04-30 22:29 25.03971 -77.46195 361 ft 139 kts 136°
2026-04-30 22:29 25.03345 -77.45409 981 ft 138 kts 135°
2026-04-30 22:30 25.02903 -77.40856 2586 ft 221 kts 37°
2026-04-30 22:31 25.07287 -77.41634 3966 ft 245 kts 318°
2026-04-30 22:32 25.11278 -77.45563 5372 ft 264 kts 316°
2026-04-30 22:32 25.14009 -77.48290 6460 ft 268 kts 317°
2026-04-30 22:33 25.18167 -77.52446 7999 ft 273 kts 317°
2026-04-30 22:33 25.21003 -77.55283 8984 ft 277 kts 317°
2026-04-30 22:34 25.25267 -77.59551 10613 ft 272 kts 317°
2026-04-30 22:35 25.28037 -77.62327 11607 ft 270 kts 317°
2026-04-30 22:36 25.33629 -77.67935 13258 ft 274 kts 317°
2026-04-30 22:36 25.35028 -77.69339 13634 ft 275 kts 317°
2026-04-30 22:37 25.39464 -77.73793 14007 ft 301 kts 317°
2026-04-30 22:37 25.41006 -77.75343 14002 ft 305 kts 316°
2026-04-30 22:37 25.44275 -77.78420 14008 ft 312 kts 322°
2026-04-30 22:38 25.47794 -77.81265 14001 ft 316 kts 322°
2026-04-30 22:38 25.51360 -77.84149 14003 ft 318 kts 322°
2026-04-30 22:39 25.53159 -77.85608 13999 ft 319 kts 322°
2026-04-30 22:39 25.58517 -77.89961 14003 ft 320 kts 322°
2026-04-30 22:40 25.63780 -77.94245 14001 ft 318 kts 322°
2026-04-30 22:41 25.69010 -77.98511 14000 ft 318 kts 322°
2026-04-30 22:41 25.72482 -78.01345 14000 ft 317 kts 322°
2026-04-30 22:42 25.79566 -78.07140 13080 ft 314 kts 322°
2026-04-30 22:43 25.83052 -78.09995 12327 ft 309 kts 322°
2026-04-30 22:43 25.86479 -78.12804 11577 ft 307 kts 322°
2026-04-30 22:44 25.89927 -78.15633 10815 ft 307 kts 322°
2026-04-30 22:45 25.96580 -78.21091 9434 ft 276 kts 322°
2026-04-30 22:45 25.99691 -78.23652 8936 ft 281 kts 322°
2026-04-30 22:46 26.02846 -78.26244 8444 ft 283 kts 322°
2026-04-30 22:47 26.09082 -78.31376 7429 ft 271 kts 322°
2026-04-30 22:47 26.12077 -78.33843 7047 ft 261 kts 322°
2026-04-30 22:48 26.14821 -78.36354 6901 ft 257 kts 312°
2026-04-30 22:49 26.18518 -78.40839 6401 ft 265 kts 311°
2026-04-30 22:49 26.22282 -78.45410 5888 ft 270 kts 311°
2026-04-30 22:50 26.27263 -78.51452 5168 ft 255 kts 310°
2026-04-30 22:51 26.30069 -78.53730 4784 ft 256 kts 345°
2026-04-30 22:51 26.33574 -78.54376 4460 ft 258 kts 349°
2026-04-30 22:52 26.35341 -78.54674 4289 ft 260 kts 349°
2026-04-30 22:52 26.38955 -78.55273 3952 ft 263 kts 349°
2026-04-30 22:53 26.42538 -78.55862 3593 ft 258 kts 349°
2026-04-30 22:53 26.46066 -78.56439 3224 ft 254 kts 349°
2026-04-30 22:53 26.47805 -78.56724 2999 ft 257 kts 349°
2026-04-30 22:54 26.51357 -78.57304 2564 ft 256 kts 349°
2026-04-30 22:55 26.56208 -78.58093 1903 ft 212 kts 349°
2026-04-30 22:55 26.58689 -78.58943 1653 ft 163 kts 330°
2026-04-30 22:56 26.60102 -78.60307 1371 ft 126 kts 263°
2026-04-30 22:56 26.59043 -78.62984 992 ft 130 kts 243°
2026-04-30 22:57 26.58175 -78.64850 674 ft 139 kts 243°
2026-04-30 22:57 26.57272 -78.66743 347 ft 140 kts 240°
2026-04-30 22:58 26.56348 -78.68600 20 ft 123 kts 239°
2026-04-30 22:59 26.55797 -78.69437 16 ft 15 kts 209°
2026-04-30 22:59 26.55388 -78.69835 16 ft 33 kts 221°